{"data":{"norad_id":52446,"intl_designator":"2022-048D","name":"JILIN-1 GAOFEN 3D29","alt_names":[],"object_type":"PAYLOAD","status":"ACTIVE","operator":null,"country":"PRC","launch_date":"2022-05-05","launch_site_code":"TAISC","launch_vehicle":null,"mission":null,"orbit_class":"UNKNOWN","rcs_meters":null,"size_class":null,"mass_kg":null,"dimensions":null,"purposes":[],"wikipedia_slug":null,"has_3d_model":false,"image_url":null,"decayed_at":null,"tle_current":{"epoch":"2026-09-01T05:11:28.479840Z","epoch_age_seconds":1790435,"freshness":"OLD","line1":"1 52446U 22048D   26244.21630185  .07932232  26489-5  51360-3 0  9991","line2":"2 52446  97.5613   7.2672 0012239 273.8210  86.1690 16.40520656241583","mean_motion":16.40520656,"eccentricity":0.0012239,"inclination_deg":97.5613,"raan_deg":7.2672,"arg_perigee_deg":273.821,"mean_anomaly_deg":86.169,"bstar":0.0005136,"rev_number":24158,"period_min":87.777011202717,"perigee_km":156.41042284248,"apogee_km":172.42528861834,"semimajor_km":6542.5548557304,"source":"CELESTRAK","updated_at":"2026-09-02T09:00:24.639987Z"}}}